Frenchville, ME

6:50 PM EDT on March 22, 2017 (GMT -0400)
Northern Aroostook Regional

Weather History for KFVE - December, 2012

Change the Weather History Date:

Wednesday, December 19, 2012

  Actual Average Record
Temperature  
Mean Temperature 29 °F 15 °F  
Max Temperature 31 °F 22 °F 34 °F (1996)
Min Temperature 26 °F 8 °F -9 °F (2008)
Degree Days  
Heating Degree Days 36    
Month to date heating degree days 814  
Since 1 July heating degree days 2831  
Cooling Degree Days 0    
Month to date cooling degree days 0  
Year to date cooling degree days 203  
Moisture  
Dew Point 27 °F    
Average Humidity 91    
Maximum Humidity 96    
Minimum Humidity 84    
Precipitation  
Precipitation 0.24 in 0.08 in 0.24 in (2012)
Month to date precipitation 1.38 1.74  
Year to date precipitation 31.54 32.80  
Sea Level Pressure  
Sea Level Pressure 29.77 in    
Wind  
Wind Speed 11 mph (NE)    
Max Wind Speed 21 mph    
Max Gust Speed 28 mph    
Visibility 3 miles    
Events Fog , Snow    
T = Trace of Precipitation, MM = Missing Value Source: NWS Daily Summary

Daily Weather History Graph

Daily Weather History Graph

Search for Another Location

Airport or City:

Trip Planner

Search our weather history database for the weather conditions in past years. The results will help you decide how hot, cold, wet, or windy it might be!

Date:

Astronomy

Dec. 19, 2012 Rise Set
Actual Time 7:16 AM EST 3:44 PM EST
Civil Twilight 6:40 AM EST 4:20 PM EST
Nautical Twilight 6:01 AM EST 4:59 PM EST
Astronomical Twilight 5:24 AM EST 5:36 PM EST
Moon 10:57 AM EST (12/19) 11:38 PM EST (12/19)
Length of Visible Light 9h 39m
Length of Day
8h 28m
Waxing Crescent, 45% of the Moon is Illuminated
Dec 19
Waxing Crescent
Dec 20
First Quarter
Dec 28
Full
Jan 4
Last Quarter
Jan 11
New

Hourly Weather History & Observations

Time (EST) Temp. Windchill Dew Point Humidity Pressure Visibility Wind Dir Wind Speed Gust Speed Precip Events Conditions
12:44 AM 30.2 °F 20.2 °F 28.4 °F 93% 29.68 in 1.8 mi ENE 12.7 mph 19.6 mph 0.03 in Snow Light Snow
12:48 AM 30.2 °F 20.2 °F 28.4 °F 93% 29.68 in 3.0 mi ENE 12.7 mph 19.6 mph 0.03 in Snow Light Snow
12:53 AM 30.0 °F 20.5 °F 28.0 °F 92% 29.71 in 4.0 mi ENE 11.5 mph 19.6 mph 0.03 in Snow Light Snow
1:21 AM 30.2 °F 19.3 °F 28.4 °F 93% 29.68 in 2.0 mi ENE 15.0 mph 21.9 mph 0.00 in Snow Light Snow
1:40 AM 30.2 °F 18.9 °F 28.4 °F 93% 29.68 in 1.8 mi ENE 16.1 mph 23.0 mph 0.01 in Snow Light Snow
1:49 AM 30.2 °F 20.2 °F 28.4 °F 93% 29.67 in 1.5 mi NE 12.7 mph 21.9 mph 0.01 in Snow Light Snow
1:53 AM 30.0 °F 19.5 °F 28.0 °F 92% 29.70 in 1.5 mi ENE 13.8 mph 21.9 mph 0.01 in Snow Light Snow
1:57 AM 30.2 °F 20.2 °F 28.4 °F 93% 29.67 in 1.5 mi NE 12.7 mph 21.9 mph 0.00 in Snow Light Snow
2:09 AM 30.2 °F 19.3 °F 28.4 °F 93% 29.67 in 1.2 mi ENE 15.0 mph 24.2 mph 0.00 in Snow Light Snow
2:53 AM 30.0 °F 19.5 °F 28.0 °F 92% 29.70 in 0.8 mi ENE 13.8 mph 21.9 mph 0.02 in Snow Light Snow
3:13 AM 30.2 °F 20.2 °F 28.4 °F 93% 29.67 in 0.2 mi NE 12.7 mph 20.7 mph 0.03 in Fog , Snow Heavy Snow
3:31 AM 30.2 °F 19.8 °F 28.4 °F 93% 29.67 in 0.8 mi ENE 13.8 mph 20.7 mph 0.05 in Snow Light Snow
3:40 AM 30.2 °F 19.8 °F 28.4 °F 93% 29.66 in 0.8 mi NE 13.8 mph 20.7 mph 0.06 in Snow Light Snow
3:53 AM 30.0 °F 19.5 °F 28.0 °F 92% 29.69 in 0.8 mi NE 13.8 mph 24.2 mph 0.06 in Snow Light Snow
4:03 AM 30.2 °F 20.2 °F 28.4 °F 93% 29.66 in 1.0 mi NE 12.7 mph 26.5 mph 0.01 in Snow Light Snow
4:19 AM 30.2 °F 18.9 °F 28.4 °F 93% 29.66 in 0.8 mi NE 16.1 mph 24.2 mph 0.01 in Snow Light Snow
4:37 AM 30.2 °F 19.3 °F 28.4 °F 93% 29.66 in 1.0 mi NE 15.0 mph 25.3 mph 0.02 in Snow Light Snow
4:49 AM 30.2 °F 20.2 °F 28.4 °F 93% 29.67 in 0.8 mi NE 12.7 mph 21.9 mph 0.03 in Snow Light Snow
4:53 AM 30.0 °F 20.0 °F 28.9 °F 96% 29.70 in 0.8 mi NE 12.7 mph 21.9 mph 0.03 in Snow Light Snow
5:29 AM 30.2 °F 18.9 °F 28.4 °F 93% 29.67 in 1.0 mi NE 16.1 mph 25.3 mph 0.02 in Snow Light Snow
5:45 AM 30.2 °F 19.3 °F 28.4 °F 93% 29.67 in 1.5 mi NE 15.0 mph 21.9 mph 0.02 in Snow Light Snow
5:53 AM 30.9 °F 20.2 °F 28.0 °F 89% 29.70 in 1.2 mi NE 15.0 mph 23.0 mph 0.02 in Snow Light Snow
6:17 AM 30.2 °F 19.8 °F 28.4 °F 93% 29.68 in 1.5 mi ENE 13.8 mph 23.0 mph 0.01 in Snow Light Snow
6:35 AM 30.2 °F 20.8 °F 28.4 °F 93% 29.69 in 1.0 mi NE 11.5 mph 27.6 mph 0.01 in Snow Light Snow
6:53 AM 30.0 °F 19.5 °F 28.0 °F 92% 29.72 in 1.0 mi NE 13.8 mph 23.0 mph 0.02 in Snow Light Snow
7:12 AM 30.2 °F 19.8 °F 28.4 °F 93% 29.69 in 1.2 mi NE 13.8 mph 21.9 mph 0.00 in Snow Light Snow
7:20 AM 30.2 °F 18.5 °F 28.4 °F 93% 29.69 in 1.8 mi NE 17.3 mph 25.3 mph 0.00 in Snow Light Snow
7:31 AM 30.2 °F 20.2 °F 28.4 °F 93% 29.69 in 1.5 mi NE 12.7 mph 27.6 mph 0.00 in Snow Light Snow
7:36 AM 30.2 °F 18.5 °F 28.4 °F 93% 29.70 in 1.2 mi NE 17.3 mph 23.0 mph 0.00 in Snow Light Snow
7:53 AM 30.0 °F 18.7 °F 28.0 °F 92% 29.74 in 1.0 mi NE 16.1 mph 25.3 mph 0.01 in Snow Light Snow
8:03 AM 30.2 °F 19.8 °F 28.4 °F 93% 29.70 in 1.2 mi NE 13.8 mph 23.0 mph 0.00 in Snow Light Snow
8:05 AM 30.2 °F 19.3 °F 28.4 °F 93% 29.70 in 1.5 mi ENE 15.0 mph 23.0 mph 0.00 in Snow Light Snow
8:20 AM 30.2 °F 18.9 °F 28.4 °F 93% 29.71 in 2.0 mi NE 16.1 mph 23.0 mph 0.00 in Snow Light Snow
8:25 AM 30.2 °F 19.3 °F 28.4 °F 93% 29.71 in 3.0 mi NE 15.0 mph 21.9 mph 0.00 in Snow Light Snow
8:33 AM 30.2 °F 18.9 °F 28.4 °F 93% 29.72 in 2.5 mi NE 16.1 mph 23.0 mph 0.00 in Snow Light Snow
8:35 AM 30.2 °F 19.8 °F 28.4 °F 93% 29.72 in 2.5 mi NE 13.8 mph 23.0 mph 0.00 in Snow Light Snow
8:40 AM 30.2 °F 20.2 °F 28.4 °F 93% 29.72 in 1.8 mi ENE 12.7 mph 25.3 mph 0.00 in Snow Light Snow
8:53 AM 30.0 °F 20.0 °F 28.0 °F 92% 29.77 in 1.5 mi ENE 12.7 mph 21.9 mph 0.00 in Snow Light Snow
8:56 AM 30.2 °F 18.9 °F 28.4 °F 93% 29.73 in 1.2 mi ENE 16.1 mph 23.0 mph 0.00 in Snow Light Snow
9:01 AM 30.2 °F 19.8 °F 28.4 °F 93% 29.74 in 0.8 mi ENE 13.8 mph 23.0 mph 0.00 in Snow Light Snow
9:09 AM 30.2 °F 20.2 °F 28.4 °F 93% 29.73 in 0.8 mi NE 12.7 mph 23.0 mph 0.00 in Snow Light Snow
9:17 AM 30.2 °F 20.2 °F 28.4 °F 93% 29.73 in 1.0 mi NE 12.7 mph 23.0 mph 0.00 in Snow Light Snow
9:43 AM 30.2 °F 19.3 °F 28.4 °F 93% 29.74 in 1.8 mi NE 15.0 mph 20.7 mph 0.00 in Snow Light Snow
9:49 AM 30.2 °F 20.2 °F 28.4 °F 93% 29.75 in 2.0 mi NE 12.7 mph 20.7 mph 0.00 in Snow Light Snow
9:53 AM 30.0 °F 20.0 °F 28.0 °F 92% 29.78 in 1.8 mi NE 12.7 mph 21.9 mph 0.00 in Snow Light Snow
9:56 AM 30.2 °F 19.3 °F 28.4 °F 93% 29.75 in 1.2 mi NE 15.0 mph 21.9 mph 0.00 in Snow Light Snow
10:08 AM 30.2 °F 18.5 °F 26.6 °F 86% 29.75 in 0.8 mi NE 17.3 mph 24.2 mph 0.01 in Snow Light Snow
10:19 AM 30.2 °F 20.8 °F 28.4 °F 93% 29.75 in 0.8 mi NE 11.5 mph 23.0 mph 0.01 in Snow Light Snow
10:45 AM 30.2 °F 20.8 °F 26.6 °F 86% 29.75 in 0.8 mi ENE 11.5 mph 21.9 mph 0.01 in Snow Light Snow
10:53 AM 30.0 °F 20.0 °F 27.0 °F 88% 29.78 in 0.8 mi NE 12.7 mph 21.9 mph 0.01 in Snow Light Snow
11:53 AM 30.0 °F 19.1 °F 27.0 °F 88% 29.79 in 0.5 mi NNE 15.0 mph 21.9 mph 0.02 in Fog , Snow Snow
12:14 PM 30.2 °F 19.8 °F 26.6 °F 86% 29.77 in 0.8 mi NNE 13.8 mph - 0.01 in Snow Light Snow
12:22 PM 30.2 °F 18.9 °F 26.6 °F 86% 29.77 in 0.8 mi NE 16.1 mph 21.9 mph 0.01 in Snow Light Snow
12:53 PM 30.0 °F 21.1 °F 27.0 °F 88% 29.81 in 1.0 mi NE 10.4 mph 18.4 mph 0.01 in Snow Light Snow
1:51 PM 28.4 °F 19.1 °F 26.6 °F 93% 29.79 in 1.5 mi NNE 10.4 mph 19.6 mph 0.01 in Snow Light Snow
1:53 PM 28.9 °F 19.8 °F 27.0 °F 92% 29.83 in 1.5 mi NNE 10.4 mph 19.6 mph 0.01 in Snow Light Snow
1:56 PM 28.4 °F 19.7 °F 26.6 °F 93% 29.79 in 1.8 mi NNE 9.2 mph 19.6 mph 0.00 in Snow Light Snow
2:03 PM 28.4 °F 18.5 °F 26.6 °F 93% 29.79 in 2.0 mi NNE 11.5 mph - 0.00 in Snow Light Snow
2:11 PM 28.4 °F 19.7 °F 26.6 °F 93% 29.80 in 1.5 mi NNE 9.2 mph - 0.00 in Snow Light Snow
2:21 PM 28.4 °F 18.0 °F 26.6 °F 93% 29.80 in 2.0 mi NNE 12.7 mph - 0.00 in Snow Light Snow
2:31 PM 28.4 °F 19.7 °F 26.6 °F 93% 29.81 in 5.0 mi NE 9.2 mph 24.2 mph 0.00 in Snow Light Snow
2:40 PM 30.2 °F 20.8 °F 26.6 °F 86% 29.81 in 6.0 mi NE 11.5 mph 17.3 mph 0.00 in Snow Light Snow
2:53 PM 28.9 °F 19.8 °F 26.1 °F 89% 29.85 in 9.0 mi NNE 10.4 mph - 0.00 in Snow Light Snow
3:36 PM 28.4 °F 20.4 °F 26.6 °F 93% 29.84 in 3.0 mi NNE 8.1 mph - 0.00 in Snow Light Snow
3:44 PM 28.4 °F 20.4 °F 26.6 °F 93% 29.85 in 2.0 mi NNE 8.1 mph - 0.00 in Snow Light Snow
3:53 PM 28.9 °F 20.4 °F 27.0 °F 92% 29.89 in 3.0 mi NNE 9.2 mph - 0.00 in Snow Light Snow
4:53 PM 28.0 °F 18.6 °F 25.0 °F 88% 29.91 in 10.0 mi NNE 10.4 mph - 0.00 in   Overcast
5:21 PM 28.4 °F 19.1 °F 24.8 °F 86% 29.89 in 7.0 mi NNE 10.4 mph - 0.00 in Snow Light Snow
5:53 PM 28.0 °F 20.0 °F 24.1 °F 85% 29.95 in 10.0 mi NE 8.1 mph - 0.00 in   Overcast
6:34 PM 28.4 °F 20.4 °F 24.8 °F 86% 29.93 in 10.0 mi NE 8.1 mph - N/A   Overcast
6:53 PM 28.0 °F 20.8 °F 24.1 °F 85% 29.97 in 10.0 mi NNE 6.9 mph - N/A   Overcast
7:05 PM 28.4 °F 22.2 °F 24.8 °F 86% 29.94 in 10.0 mi NE 5.8 mph - N/A   Overcast
7:53 PM 28.0 °F 20.8 °F 24.1 °F 85% 29.99 in 10.0 mi NE 6.9 mph - N/A   Overcast
8:53 PM 27.0 °F 19.5 °F 23.0 °F 85% 30.01 in 10.0 mi NNE 6.9 mph - N/A   Overcast
9:41 PM 26.6 °F 20.0 °F 23.0 °F 86% 29.98 in 10.0 mi NNE 5.8 mph - N/A   Overcast
9:53 PM 27.0 °F 19.5 °F 23.0 °F 85% 30.01 in 10.0 mi ENE 6.9 mph - N/A   Overcast
10:53 PM 26.1 °F 19.4 °F 21.9 °F 84% 30.04 in 10.0 mi ENE 5.8 mph - N/A   Overcast
11:53 PM 26.1 °F 17.6 °F 21.9 °F 84% 30.04 in 10.0 mi NE 8.1 mph - N/A   Overcast